Time,TemperatureF,DewpointF,PressureIn,WindDirection,WindDirectionDegrees,WindSpeedMPH,WindSpeedGustMPH,Humidity,HourlyPrecipIn,Conditions,Clouds,dailyrainin,SoftwareType,DateUTC
2013-08-26 00:02:00,68.5,51.2,30.06,ENE,78,8.3,8.3,54,0.00,,---,0.00,VWS V14.01,2013-08-26 07:02:00,
2013-08-26 00:07:00,68.5,52.0,30.06,NNE,25,8.7,12.8,56,0.00,,---,0.00,VWS V14.01,2013-08-26 07:07:00,
2013-08-26 00:13:00,68.5,52.0,30.06,NE,43,8.3,8.3,56,0.00,,---,0.00,VWS V14.01,2013-08-26 07:13:00,
2013-08-26 00:19:00,68.4,51.8,30.06,NE,36,8.7,8.7,56,0.00,,---,0.00,VWS V14.01,2013-08-26 07:19:00,
2013-08-26 00:25:00,68.4,52.5,30.06,NE,43,6.3,8.1,57,0.00,,---,0.00,VWS V14.01,2013-08-26 07:25:00,
2013-08-26 00:30:00,68.4,52.5,30.06,NE,41,6.7,11.0,57,0.00,,---,0.00,VWS V14.01,2013-08-26 07:30:00,
2013-08-26 00:35:00,68.2,53.1,30.06,NE,37,8.7,11.0,58,0.00,,---,0.00,VWS V14.01,2013-08-26 07:35:00,
2013-08-26 00:41:00,68.2,53.8,30.06,North,9,10.5,12.3,60,0.00,,---,0.00,VWS V14.01,2013-08-26 07:41:00,
2013-08-26 00:47:00,68.2,54.5,30.06,NNE,19,10.5,11.9,62,0.00,,---,0.00,VWS V14.01,2013-08-26 07:47:00,
2013-08-26 00:52:00,68.0,55.0,30.06,NNE,23,10.1,12.8,63,0.00,,---,0.00,VWS V14.01,2013-08-26 07:52:00,
2013-08-26 00:57:00,67.8,55.4,30.06,ENE,70,7.6,11.0,64,0.00,,---,0.00,VWS V14.01,2013-08-26 07:57:00,
2013-08-26 01:02:00,67.8,56.1,30.06,NNE,23,10.5,10.5,66,0.00,,---,0.00,VWS V14.01,2013-08-26 08:02:00,
2013-08-26 01:07:00,67.8,56.1,30.03,NNE,20,8.3,10.1,66,0.00,,---,0.00,VWS V14.01,2013-08-26 08:07:00,
2013-08-26 01:13:00,67.8,56.1,30.03,NE,38,11.0,13.2,66,0.00,,---,0.00,VWS V14.01,2013-08-26 08:13:00,
2013-08-26 01:18:00,68.0,56.2,30.03,NNE,28,10.1,10.1,66,0.00,,---,0.00,VWS V14.01,2013-08-26 08:18:00,
2013-08-26 01:23:00,68.0,56.2,30.06,NNE,27,11.0,13.6,66,0.00,,---,0.00,VWS V14.01,2013-08-26 08:23:00,
2013-08-26 01:29:00,68.0,56.2,30.06,NE,36,8.3,10.5,66,0.00,,---,0.00,VWS V14.01,2013-08-26 08:29:00,
2013-08-26 01:34:00,68.0,56.2,30.06,NNE,15,12.8,12.8,66,0.00,,---,0.00,VWS V14.01,2013-08-26 08:34:00,
2013-08-26 01:40:00,67.8,56.7,30.03,NE,56,11.0,15.9,68,0.00,,---,0.00,VWS V14.01,2013-08-26 08:40:00,
2013-08-26 01:45:00,67.8,56.7,30.03,NE,49,11.0,15.0,68,0.00,,---,0.00,VWS V14.01,2013-08-26 08:45:00,
2013-08-26 01:51:00,67.8,56.7,30.03,NE,45,8.7,10.5,68,0.00,,---,0.00,VWS V14.01,2013-08-26 08:51:00,
2013-08-26 01:56:00,67.8,56.7,30.03,NE,42,8.7,12.8,68,0.00,,---,0.00,VWS V14.01,2013-08-26 08:56:00,
2013-08-26 02:02:00,67.8,56.7,30.03,ENE,60,11.9,13.2,68,0.00,,---,0.00,VWS V14.01,2013-08-26 09:02:00,
2013-08-26 02:08:00,67.8,56.7,30.03,NE,43,11.9,12.3,68,0.00,,---,0.00,VWS V14.01,2013-08-26 09:08:00,
2013-08-26 02:13:00,67.8,56.7,30.03,ENE,58,10.1,11.0,68,0.00,,---,0.00,VWS V14.01,2013-08-26 09:13:00,
2013-08-26 02:19:00,67.8,56.7,30.03,NNE,30,10.5,12.8,68,0.00,,---,0.00,VWS V14.01,2013-08-26 09:19:00,
2013-08-26 02:25:00,67.6,56.5,30.03,North,11,8.1,8.1,68,0.00,,---,0.00,VWS V14.01,2013-08-26 09:25:00,
2013-08-26 02:30:00,67.6,56.5,30.03,NE,47,8.1,8.3,68,0.00,,---,0.00,VWS V14.01,2013-08-26 09:30:00,
2013-08-26 02:36:00,67.6,56.5,30.03,NE,45,8.7,10.1,68,0.00,,---,0.00,VWS V14.01,2013-08-26 09:36:00,
2013-08-26 02:41:00,67.8,56.7,30.03,NNE,24,8.3,11.0,68,0.00,,---,0.00,VWS V14.01,2013-08-26 09:41:00,
2013-08-26 02:47:00,67.8,56.7,30.03,ENE,58,6.3,12.8,68,0.00,,---,0.00,VWS V14.01,2013-08-26 09:47:00,
2013-08-26 02:53:00,67.8,56.7,30.03,NE,49,10.1,11.0,68,0.00,,---,0.00,VWS V14.01,2013-08-26 09:53:00,
2013-08-26 02:58:00,67.8,56.7,30.03,ENE,58,10.1,12.8,68,0.00,,---,0.00,VWS V14.01,2013-08-26 09:58:00,
2013-08-26 03:03:00,67.8,56.7,30.03,NE,38,8.7,11.0,68,0.00,,---,0.00,VWS V14.01,2013-08-26 10:03:00,
2013-08-26 03:08:00,67.8,56.7,30.03,NE,56,8.1,10.1,68,0.00,,---,0.00,VWS V14.01,2013-08-26 10:08:00,
2013-08-26 03:14:00,68.0,56.8,30.03,NE,43,10.5,12.8,68,0.00,,---,0.00,VWS V14.01,2013-08-26 10:14:00,
2013-08-26 03:20:00,68.0,56.8,30.03,NE,38,8.1,8.1,68,0.00,,---,0.00,VWS V14.01,2013-08-26 10:20:00,
2013-08-26 03:25:00,68.0,56.8,30.03,NNE,31,8.3,8.3,68,0.00,,---,0.00,VWS V14.01,2013-08-26 10:25:00,
2013-08-26 03:31:00,68.0,56.8,30.03,NNE,22,5.8,8.3,68,0.00,,---,0.00,VWS V14.01,2013-08-26 10:31:00,
2013-08-26 03:36:00,68.0,56.8,30.03,NE,48,5.8,8.7,68,0.00,,---,0.00,VWS V14.01,2013-08-26 10:36:00,
2013-08-26 03:41:00,68.0,56.8,30.03,North,6,8.7,9.6,68,0.00,,---,0.00,VWS V14.01,2013-08-26 10:41:00,
2013-08-26 03:48:00,67.8,57.3,30.03,NE,37,11.0,11.0,69,0.00,,---,0.00,VWS V14.01,2013-08-26 10:48:00,
2013-08-26 03:53:00,68.0,56.8,30.06,NE,45,7.2,10.1,68,0.00,,---,0.00,VWS V14.01,2013-08-26 10:53:00,
2013-08-26 03:58:00,68.0,56.8,30.06,NE,38,8.3,9.6,68,0.00,,---,0.00,VWS V14.01,2013-08-26 10:58:00,
2013-08-26 04:04:00,68.0,56.8,30.06,NE,53,8.1,8.3,68,0.00,,---,0.00,VWS V14.01,2013-08-26 11:04:00,
2013-08-26 04:09:00,68.0,56.8,30.06,NE,36,5.8,5.8,68,0.00,,---,0.00,VWS V14.01,2013-08-26 11:09:00,
2013-08-26 04:15:00,67.8,57.3,30.06,NE,49,8.3,10.5,69,0.00,,---,0.00,VWS V14.01,2013-08-26 11:15:00,
2013-08-26 04:21:00,67.6,57.1,30.03,NNE,32,8.3,11.0,69,0.00,,---,0.00,VWS V14.01,2013-08-26 11:21:00,
2013-08-26 04:27:00,67.6,57.7,30.03,NNE,33,8.1,10.5,70,0.00,,---,0.00,VWS V14.01,2013-08-26 11:27:00,
2013-08-26 04:32:00,67.6,57.7,30.03,NNE,16,7.6,10.5,70,0.00,,---,0.00,VWS V14.01,2013-08-26 11:32:00,
2013-08-26 04:37:00,67.6,57.7,30.03,NNE,32,8.7,12.8,70,0.00,,---,0.00,VWS V14.01,2013-08-26 11:37:00,
2013-08-26 04:43:00,67.6,57.7,30.03,NNE,28,8.3,10.1,70,0.00,,---,0.00,VWS V14.01,2013-08-26 11:43:00,
2013-08-26 04:48:00,67.6,57.7,30.03,NNE,24,8.3,11.0,70,0.00,,---,0.00,VWS V14.01,2013-08-26 11:48:00,
2013-08-26 04:53:00,67.8,57.9,30.03,NNE,19,7.6,8.3,70,0.00,,---,0.00,VWS V14.01,2013-08-26 11:53:00,
2013-08-26 04:58:00,67.8,57.9,30.03,NNE,29,8.1,11.9,70,0.00,,---,0.00,VWS V14.01,2013-08-26 11:58:00,
2013-08-26 05:03:00,67.8,57.9,30.03,NE,44,8.3,8.7,70,0.00,,---,0.00,VWS V14.01,2013-08-26 12:03:00,
2013-08-26 05:09:00,67.8,57.9,30.03,NE,47,7.6,10.1,70,0.00,,---,0.00,VWS V14.01,2013-08-26 12:09:00,
2013-08-26 05:15:00,67.8,57.9,30.03,NNE,18,8.1,10.1,70,0.00,,---,0.00,VWS V14.01,2013-08-26 12:15:00,
2013-08-26 05:20:00,67.8,57.9,30.03,NNE,30,5.8,8.7,70,0.00,,---,0.00,VWS V14.01,2013-08-26 12:20:00,
2013-08-26 05:26:00,67.8,57.9,30.03,NNE,21,5.8,8.7,70,0.00,,---,0.00,VWS V14.01,2013-08-26 12:26:00,
2013-08-26 05:32:00,67.8,57.9,30.03,ENE,60,6.3,8.7,70,0.00,,---,0.00,VWS V14.01,2013-08-26 12:32:00,
2013-08-26 05:38:00,67.8,57.9,30.03,NE,37,5.4,5.8,70,0.00,,---,0.00,VWS V14.01,2013-08-26 12:38:00,
2013-08-26 05:43:00,67.8,57.9,30.03,NE,45,5.4,8.7,70,0.00,,---,0.00,VWS V14.01,2013-08-26 12:43:00,
2013-08-26 05:49:00,67.8,57.9,30.03,NE,46,8.7,8.7,70,0.00,,---,0.00,VWS V14.01,2013-08-26 12:49:00,
2013-08-26 05:54:00,67.8,57.9,30.03,NE,43,11.0,11.0,70,0.00,,---,0.00,VWS V14.01,2013-08-26 12:54:00,
2013-08-26 05:59:00,67.8,57.9,30.03,ENE,70,12.3,12.3,70,0.00,,---,0.00,VWS V14.01,2013-08-26 12:59:00,
2013-08-26 06:05:00,67.8,57.9,30.03,NNE,25,6.3,8.3,70,0.00,,---,0.00,VWS V14.01,2013-08-26 13:05:00,
2013-08-26 06:10:00,67.8,57.9,30.06,NNE,29,5.8,8.3,70,0.00,,---,0.00,VWS V14.01,2013-08-26 13:10:00,
2013-08-26 06:16:00,67.8,57.9,30.06,NE,45,9.6,9.6,70,0.00,,---,0.00,VWS V14.01,2013-08-26 13:16:00,
2013-08-26 06:22:00,67.8,57.9,30.06,NE,41,8.1,10.1,70,0.00,,---,0.00,VWS V14.01,2013-08-26 13:22:00,
2013-08-26 06:28:00,67.8,57.3,30.06,NE,46,7.6,8.3,69,0.00,,---,0.00,VWS V14.01,2013-08-26 13:28:00,
2013-08-26 06:34:00,67.8,57.3,30.06,NE,39,7.6,10.1,69,0.00,,---,0.00,VWS V14.01,2013-08-26 13:34:00,
2013-08-26 06:39:00,68.0,57.5,30.06,NE,34,8.3,8.3,69,0.00,,---,0.00,VWS V14.01,2013-08-26 13:39:00,
2013-08-26 06:44:00,68.0,57.5,30.06,NE,45,8.7,9.2,69,0.00,,---,0.00,VWS V14.01,2013-08-26 13:44:00,
2013-08-26 06:49:00,68.0,57.5,30.06,NE,45,5.4,7.6,69,0.00,,---,0.00,VWS V14.01,2013-08-26 13:49:00,
2013-08-26 06:55:00,68.0,57.5,30.06,NNE,33,8.7,8.7,69,0.00,,---,0.00,VWS V14.01,2013-08-26 13:55:00,
2013-08-26 07:01:00,68.2,57.0,30.06,NNE,12,6.3,10.1,68,0.00,,---,0.00,VWS V14.01,2013-08-26 14:01:00,
2013-08-26 07:06:00,68.2,57.0,30.06,NE,35,10.1,10.1,68,0.00,,---,0.00,VWS V14.01,2013-08-26 14:06:00,
2013-08-26 07:12:00,68.4,57.2,30.06,NE,51,6.3,11.0,68,0.00,,---,0.00,VWS V14.01,2013-08-26 14:12:00,
2013-08-26 07:17:00,68.4,57.2,30.06,NE,54,4.5,7.6,68,0.00,,---,0.00,VWS V14.01,2013-08-26 14:17:00,
2013-08-26 07:22:00,68.4,57.2,30.06,NE,50,8.1,9.6,68,0.00,,---,0.00,VWS V14.01,2013-08-26 14:22:00,
2013-08-26 07:28:00,68.5,57.4,30.06,ENE,58,10.1,12.8,68,0.00,,---,0.00,VWS V14.01,2013-08-26 14:28:00,
2013-08-26 07:34:00,68.5,57.4,30.06,NNE,30,5.8,6.3,68,0.00,,---,0.00,VWS V14.01,2013-08-26 14:34:00,
2013-08-26 07:40:00,68.7,57.5,30.06,NE,41,8.3,8.7,68,0.00,,---,0.00,VWS V14.01,2013-08-26 14:40:00,
2013-08-26 07:45:00,68.9,57.1,30.06,ENE,75,7.2,10.5,66,0.00,,---,0.00,VWS V14.01,2013-08-26 14:45:00,
2013-08-26 07:50:00,69.1,57.3,30.06,NE,49,8.3,8.7,66,0.00,,---,0.00,VWS V14.01,2013-08-26 14:50:00,
2013-08-26 07:56:00,68.9,56.5,30.06,NE,56,10.5,10.5,64,0.00,,---,0.00,VWS V14.01,2013-08-26 14:56:00,
2013-08-26 08:02:00,69.1,56.0,30.06,NNE,27,8.3,13.2,63,0.00,,---,0.00,VWS V14.01,2013-08-26 15:02:00,
2013-08-26 08:07:00,69.1,56.0,30.06,NE,38,5.8,9.2,63,0.00,,---,0.00,VWS V14.01,2013-08-26 15:07:00,
2013-08-26 08:13:00,69.1,55.3,30.06,ENE,60,10.5,10.5,62,0.00,,---,0.00,VWS V14.01,2013-08-26 15:13:00,
2013-08-26 08:18:00,69.1,54.6,30.06,ENE,71,5.4,7.6,60,0.00,,---,0.00,VWS V14.01,2013-08-26 15:18:00,
2013-08-26 08:23:00,69.1,54.6,30.06,NE,44,7.2,7.2,60,0.00,,---,0.00,VWS V14.01,2013-08-26 15:23:00,
2013-08-26 08:29:00,69.1,53.9,30.06,ENE,71,6.3,10.5,58,0.00,,---,0.00,VWS V14.01,2013-08-26 15:29:00,
2013-08-26 08:35:00,69.4,54.3,30.06,ENE,72,7.6,7.6,58,0.00,,---,0.00,VWS V14.01,2013-08-26 15:35:00,
2013-08-26 08:41:00,69.6,53.7,30.06,NE,55,8.1,8.1,57,0.00,,---,0.00,VWS V14.01,2013-08-26 15:41:00,
2013-08-26 08:46:00,70.0,53.3,30.06,East,98,5.4,6.3,56,0.00,,---,0.00,VWS V14.01,2013-08-26 15:46:00,
2013-08-26 08:52:00,70.5,53.8,30.06,East,81,4.9,4.9,56,0.00,,---,0.00,VWS V14.01,2013-08-26 15:52:00,
2013-08-26 08:58:00,71.1,53.6,30.06,ENE,59,10.5,10.5,54,0.00,,---,0.00,VWS V14.01,2013-08-26 15:58:00,
2013-08-26 09:04:00,71.8,53.5,30.06,NE,54,8.1,8.1,52,0.00,,---,0.00,VWS V14.01,2013-08-26 16:04:00,
2013-08-26 09:10:00,72.0,53.7,30.06,NE,56,8.7,8.7,52,0.00,,---,0.00,VWS V14.01,2013-08-26 16:10:00,
2013-08-26 09:15:00,72.1,53.0,30.06,East,86,10.5,11.9,51,0.00,,---,0.00,VWS V14.01,2013-08-26 16:15:00,
2013-08-26 09:21:00,72.1,53.0,30.06,ENE,62,8.7,10.1,51,0.00,,---,0.00,VWS V14.01,2013-08-26 16:21:00,
2013-08-26 09:26:00,72.1,53.8,30.06,ENE,57,11.0,11.0,52,0.00,,---,0.00,VWS V14.01,2013-08-26 16:26:00,
2013-08-26 09:32:00,72.0,53.7,30.06,NE,44,8.1,9.6,52,0.00,,---,0.00,VWS V14.01,2013-08-26 16:32:00,
2013-08-26 09:38:00,72.0,53.7,30.06,NNE,28,6.3,10.1,52,0.00,,---,0.00,VWS V14.01,2013-08-26 16:38:00,
2013-08-26 09:43:00,72.0,53.7,30.06,NE,55,10.5,10.5,52,0.00,,---,0.00,VWS V14.01,2013-08-26 16:43:00,
2013-08-26 09:48:00,72.0,53.7,30.06,NE,52,7.6,8.7,52,0.00,,---,0.00,VWS V14.01,2013-08-26 16:48:00,
2013-08-26 09:53:00,72.0,53.7,30.06,North,7,8.3,10.5,52,0.00,,---,0.00,VWS V14.01,2013-08-26 16:53:00,
2013-08-26 09:59:00,72.0,53.7,30.06,ENE,60,12.3,12.3,52,0.00,,---,0.00,VWS V14.01,2013-08-26 16:59:00,
2013-08-26 10:05:00,72.0,53.7,30.06,NE,39,8.3,10.5,52,0.00,,---,0.00,VWS V14.01,2013-08-26 17:05:00,
2013-08-26 10:11:00,72.1,54.6,30.06,NE,47,11.0,11.0,54,0.00,,---,0.00,VWS V14.01,2013-08-26 17:11:00,
2013-08-26 10:16:00,72.1,54.6,30.06,NE,45,8.7,8.7,54,0.00,,---,0.00,VWS V14.01,2013-08-26 17:16:00,
2013-08-26 10:22:00,72.0,54.4,30.06,NNE,31,8.1,10.1,54,0.00,,---,0.00,VWS V14.01,2013-08-26 17:22:00,
2013-08-26 10:27:00,71.8,55.0,30.06,NE,38,8.1,10.1,56,0.00,,---,0.00,VWS V14.01,2013-08-26 17:27:00,
2013-08-26 10:33:00,72.0,55.2,30.06,NE,52,10.5,10.5,56,0.00,,---,0.00,VWS V14.01,2013-08-26 17:33:00,
2013-08-26 10:39:00,72.1,55.3,30.06,NE,51,9.6,10.1,56,0.00,,---,0.00,VWS V14.01,2013-08-26 17:39:00,
2013-08-26 10:44:00,72.3,54.8,30.06,ENE,61,8.7,9.6,54,0.00,,---,0.00,VWS V14.01,2013-08-26 17:44:00,
2013-08-26 10:49:00,72.3,54.8,30.06,ENE,59,8.1,8.7,54,0.00,,---,0.00,VWS V14.01,2013-08-26 17:49:00,
2013-08-26 10:55:00,72.1,54.6,30.06,NE,48,5.4,8.1,54,0.00,,---,0.00,VWS V14.01,2013-08-26 17:55:00,
2013-08-26 11:00:00,72.3,54.8,30.06,NE,42,4.9,5.4,54,0.00,,---,0.00,VWS V14.01,2013-08-26 18:00:00,
2013-08-26 11:05:00,72.3,54.8,30.06,ENE,60,5.4,6.7,54,0.00,,---,0.00,VWS V14.01,2013-08-26 18:05:00,
2013-08-26 11:10:00,72.0,54.4,30.06,NE,51,12.3,12.3,54,0.00,,---,0.00,VWS V14.01,2013-08-26 18:10:00,
2013-08-26 11:16:00,72.0,54.4,30.06,NE,41,8.1,10.1,54,0.00,,---,0.00,VWS V14.01,2013-08-26 18:16:00,
2013-08-26 11:22:00,71.8,55.0,30.06,NNE,32,8.1,8.3,56,0.00,,---,0.00,VWS V14.01,2013-08-26 18:22:00,
2013-08-26 11:28:00,71.6,55.6,30.06,NE,46,8.1,12.8,57,0.00,,---,0.00,VWS V14.01,2013-08-26 18:28:00,
2013-08-26 11:33:00,71.4,56.1,30.06,ENE,71,10.1,10.1,58,0.00,,---,0.00,VWS V14.01,2013-08-26 18:33:00,
2013-08-26 11:38:00,71.8,56.5,30.06,NE,47,7.2,7.6,58,0.00,,---,0.00,VWS V14.01,2013-08-26 18:38:00,
2013-08-26 11:44:00,72.0,56.6,30.06,NE,44,5.8,10.1,58,0.00,,---,0.00,VWS V14.01,2013-08-26 18:44:00,
2013-08-26 11:49:00,72.1,56.8,30.06,NE,42,12.8,13.2,58,0.00,,---,0.00,VWS V14.01,2013-08-26 18:49:00,
2013-08-26 11:55:00,72.5,56.4,30.06,NE,46,8.3,11.4,57,0.00,,---,0.00,VWS V14.01,2013-08-26 18:55:00,
2013-08-26 12:00:00,72.5,56.4,30.06,ENE,66,9.2,15.0,57,0.00,,---,0.00,VWS V14.01,2013-08-26 19:00:00,
2013-08-26 12:05:00,72.1,55.3,30.06,ENE,77,13.2,13.2,56,0.00,,---,0.00,VWS V14.01,2013-08-26 19:05:00,
2013-08-26 12:10:00,72.0,55.2,30.06,NE,51,8.7,12.3,56,0.00,,---,0.00,VWS V14.01,2013-08-26 19:10:00,
2013-08-26 12:16:00,71.8,55.8,30.06,ENE,64,8.7,11.4,57,0.00,,---,0.00,VWS V14.01,2013-08-26 19:16:00,
2013-08-26 12:22:00,71.6,55.6,30.06,NE,52,12.3,12.3,57,0.00,,---,0.00,VWS V14.01,2013-08-26 19:22:00,
2013-08-26 12:28:00,72.3,55.5,30.06,NNE,15,8.3,13.2,56,0.00,,---,0.00,VWS V14.01,2013-08-26 19:28:00,
2013-08-26 12:33:00,72.9,55.3,30.06,ENE,73,7.2,8.1,54,0.00,,---,0.00,VWS V14.01,2013-08-26 19:33:00,
2013-08-26 12:38:00,73.8,56.1,30.06,East,82,7.6,10.1,54,0.00,,---,0.00,VWS V14.01,2013-08-26 19:38:00,
2013-08-26 12:44:00,74.5,55.2,30.06,ENE,76,10.1,10.1,51,0.00,,---,0.00,VWS V14.01,2013-08-26 19:44:00,
2013-08-26 12:50:00,74.5,55.2,30.03,ENE,65,6.3,9.6,51,0.00,,---,0.00,VWS V14.01,2013-08-26 19:50:00,
2013-08-26 12:56:00,74.7,54.5,30.03,ENE,76,8.3,10.1,50,0.00,,---,0.00,VWS V14.01,2013-08-26 19:56:00,
2013-08-26 13:01:00,75.0,54.0,30.03,NE,53,8.1,13.2,48,0.00,,---,0.00,VWS V14.01,2013-08-26 20:01:00,
2013-08-26 13:07:00,75.4,53.5,30.03,ENE,61,8.1,11.4,46,0.00,,---,0.00,VWS V14.01,2013-08-26 20:07:00,
2013-08-26 13:12:00,75.7,53.8,30.03,ENE,68,8.7,11.4,46,0.00,,---,0.00,VWS V14.01,2013-08-26 20:12:00,
2013-08-26 13:18:00,76.1,54.1,30.03,East,79,5.8,10.5,46,0.00,,---,0.00,VWS V14.01,2013-08-26 20:18:00,
2013-08-26 13:24:00,76.3,54.3,30.03,ESE,122,8.3,15.0,46,0.00,,---,0.00,VWS V14.01,2013-08-26 20:24:00,
2013-08-26 13:29:00,76.1,53.2,30.03,NE,49,8.3,13.2,45,0.00,,---,0.00,VWS V14.01,2013-08-26 20:29:00,
2013-08-26 13:35:00,76.6,53.7,30.03,ENE,67,6.3,10.5,45,0.00,,---,0.00,VWS V14.01,2013-08-26 20:35:00,
2013-08-26 13:41:00,76.5,52.6,30.03,East,101,10.5,11.9,44,0.00,,---,0.00,VWS V14.01,2013-08-26 20:41:00,
2013-08-26 13:46:00,76.5,52.6,30.03,ENE,73,8.1,10.5,44,0.00,,---,0.00,VWS V14.01,2013-08-26 20:46:00,
2013-08-26 13:51:00,76.5,51.7,30.03,ENE,77,10.1,10.1,42,0.00,,---,0.00,VWS V14.01,2013-08-26 20:51:00,
2013-08-26 13:57:00,76.5,51.7,30.03,ENE,60,13.2,13.2,42,0.00,,---,0.00,VWS V14.01,2013-08-26 20:57:00,
2013-08-26 14:03:00,76.3,51.5,30.03,East,101,10.5,13.2,42,0.00,,---,0.00,VWS V14.01,2013-08-26 21:03:00,
2013-08-26 14:08:00,76.3,50.5,30.03,ENE,68,12.8,12.8,40,0.00,,---,0.00,VWS V14.01,2013-08-26 21:08:00,
2013-08-26 14:14:00,76.8,51.0,30.03,East,89,8.3,10.1,40,0.00,,---,0.00,VWS V14.01,2013-08-26 21:14:00,
2013-08-26 14:20:00,77.0,50.2,30.03,ESE,102,8.7,11.0,39,0.00,,---,0.00,VWS V14.01,2013-08-26 21:20:00,
2013-08-26 14:26:00,76.8,50.0,30.03,NE,52,15.9,18.8,39,0.00,,---,0.00,VWS V14.01,2013-08-26 21:26:00,
2013-08-26 14:31:00,76.6,48.8,30.03,East,91,8.1,10.1,38,0.00,,---,0.00,VWS V14.01,2013-08-26 21:31:00,
2013-08-26 14:37:00,76.8,49.0,30.03,NE,49,8.7,8.7,38,0.00,,---,0.00,VWS V14.01,2013-08-26 21:37:00,
2013-08-26 14:42:00,77.0,49.1,30.03,East,99,8.1,12.8,38,0.00,,---,0.00,VWS V14.01,2013-08-26 21:42:00,
2013-08-26 14:47:00,77.0,48.0,30.03,NE,56,8.1,11.0,36,0.00,,---,0.00,VWS V14.01,2013-08-26 21:47:00,
2013-08-26 14:53:00,77.2,48.2,30.00,East,96,8.3,8.3,36,0.00,,---,0.00,VWS V14.01,2013-08-26 21:53:00,
2013-08-26 14:58:00,77.4,48.3,30.00,ENE,76,12.8,13.2,36,0.00,,---,0.00,VWS V14.01,2013-08-26 21:58:00,
2013-08-26 15:04:00,77.2,48.2,30.00,ENE,58,10.1,14.1,36,0.00,,---,0.00,VWS V14.01,2013-08-26 22:04:00,
2013-08-26 15:10:00,77.0,48.0,30.00,East,98,12.8,14.5,36,0.00,,---,0.00,VWS V14.01,2013-08-26 22:10:00,
2013-08-26 15:16:00,76.8,47.9,30.00,ESE,109,8.3,11.9,36,0.00,,---,0.00,VWS V14.01,2013-08-26 22:16:00,
2013-08-26 15:22:00,76.6,47.7,30.00,ENE,63,8.1,8.1,36,0.00,,---,0.00,VWS V14.01,2013-08-26 22:22:00,
2013-08-26 15:27:00,76.5,47.5,30.00,ENE,63,8.1,8.1,36,0.00,,---,0.00,VWS V14.01,2013-08-26 22:27:00,
2013-08-26 15:32:00,76.1,47.2,30.00,ENE,63,8.1,8.1,36,0.00,,---,0.00,VWS V14.01,2013-08-26 22:32:00,
2013-08-26 15:38:00,75.9,47.1,30.00,ENE,63,8.1,8.1,36,0.00,,---,0.00,VWS V14.01,2013-08-26 22:38:00,
2013-08-26 15:43:00,75.2,47.5,30.00,ENE,57,9.6,9.6,38,0.00,,---,0.00,VWS V14.01,2013-08-26 22:43:00,
2013-08-26 15:48:00,74.7,47.0,30.00,ENE,70,6.7,14.1,38,0.00,,---,0.00,VWS V14.01,2013-08-26 22:48:00,
2013-08-26 15:54:00,74.1,47.6,30.00,ENE,66,8.1,12.3,39,0.00,,---,0.00,VWS V14.01,2013-08-26 22:54:00,
2013-08-26 15:59:00,74.3,48.8,30.00,NE,49,11.9,11.9,40,0.00,,---,0.00,VWS V14.01,2013-08-26 22:59:00,
2013-08-26 16:04:00,74.1,48.6,30.00,ENE,75,11.0,11.0,40,0.00,,---,0.00,VWS V14.01,2013-08-26 23:04:00,
2013-08-26 16:10:00,74.7,50.1,30.00,ENE,68,10.5,10.5,42,0.00,,---,0.00,VWS V14.01,2013-08-26 23:10:00,
2013-08-26 16:15:00,74.7,50.1,30.00,ENE,57,16.3,16.3,42,0.00,,---,0.00,VWS V14.01,2013-08-26 23:15:00,
2013-08-26 16:21:00,74.8,50.2,30.00,NE,54,8.3,8.3,42,0.00,,---,0.00,VWS V14.01,2013-08-26 23:21:00,
2013-08-26 16:27:00,75.0,51.3,30.00,NE,47,8.1,10.1,44,0.00,,---,0.00,VWS V14.01,2013-08-26 23:27:00,
2013-08-26 16:33:00,75.2,50.6,30.00,NE,47,8.1,8.1,42,0.00,,---,0.00,VWS V14.01,2013-08-26 23:33:00,
2013-08-26 16:38:00,75.4,50.7,30.00,NE,47,8.1,8.1,42,0.00,,---,0.00,VWS V14.01,2013-08-26 23:38:00,
2013-08-26 16:44:00,75.4,50.7,30.00,ENE,73,8.7,9.2,42,0.00,,---,0.00,VWS V14.01,2013-08-26 23:44:00,
2013-08-26 16:49:00,75.6,49.9,30.00,NE,44,8.3,8.3,40,0.00,,---,0.00,VWS V14.01,2013-08-26 23:49:00,
2013-08-26 16:54:00,75.9,50.2,30.00,ENE,77,11.0,11.0,40,0.00,,---,0.00,VWS V14.01,2013-08-26 23:54:00,
2013-08-26 16:59:00,76.1,50.4,30.00,ENE,75,8.7,8.7,40,0.00,,---,0.00,VWS V14.01,2013-08-26 23:59:00,
2013-08-26 17:04:00,76.1,49.4,30.00,ENE,75,8.7,8.7,39,0.00,,---,0.00,VWS V14.01,2013-08-27 00:04:00,
2013-08-26 17:10:00,76.3,49.5,30.00,ENE,75,8.7,8.7,39,0.00,,---,0.00,VWS V14.01,2013-08-27 00:10:00,
2013-08-26 17:15:00,76.3,48.5,30.00,ENE,75,8.7,8.7,38,0.00,,---,0.00,VWS V14.01,2013-08-27 00:15:00,
2013-08-26 17:20:00,76.1,48.3,30.00,ENE,73,13.2,13.2,38,0.00,,---,0.00,VWS V14.01,2013-08-27 00:20:00,
2013-08-26 17:25:00,76.1,48.3,30.00,ENE,73,13.2,13.2,38,0.00,,---,0.00,VWS V14.01,2013-08-27 00:25:00,
2013-08-26 17:31:00,76.3,48.5,30.00,ENE,76,8.3,10.1,38,0.00,,---,0.00,VWS V14.01,2013-08-27 00:31:00,
2013-08-26 17:36:00,75.9,48.2,30.00,East,85,7.6,7.6,38,0.00,,---,0.00,VWS V14.01,2013-08-27 00:36:00,
2013-08-26 17:42:00,75.6,47.8,30.00,East,85,7.6,7.6,38,0.00,,---,0.00,VWS V14.01,2013-08-27 00:42:00,
2013-08-26 17:47:00,75.6,47.8,30.00,East,85,7.6,7.6,38,0.00,,---,0.00,VWS V14.01,2013-08-27 00:47:00,
2013-08-26 17:52:00,75.4,47.7,30.00,ENE,65,10.5,10.5,38,0.00,,---,0.00,VWS V14.01,2013-08-27 00:52:00,
2013-08-26 17:57:00,75.4,48.7,30.00,ENE,62,11.0,11.0,39,0.00,,---,0.00,VWS V14.01,2013-08-27 00:57:00,
2013-08-26 18:02:00,75.2,48.6,30.00,ENE,76,8.7,13.6,39,0.00,,---,0.00,VWS V14.01,2013-08-27 01:02:00,
2013-08-26 18:07:00,75.2,48.6,29.97,NE,36,8.7,8.7,39,0.00,,---,0.00,VWS V14.01,2013-08-27 01:07:00,
2013-08-26 18:13:00,75.2,48.6,29.97,NE,43,9.6,10.1,39,0.00,,---,0.00,VWS V14.01,2013-08-27 01:13:00,
2013-08-26 18:19:00,75.0,49.4,29.97,ENE,78,8.3,11.0,40,0.00,,---,0.00,VWS V14.01,2013-08-27 01:19:00,
2013-08-26 18:24:00,75.0,49.4,29.97,NE,56,10.1,11.0,40,0.00,,---,0.00,VWS V14.01,2013-08-27 01:24:00,
2013-08-26 18:30:00,74.8,49.3,29.97,ENE,57,8.1,10.5,40,0.00,,---,0.00,VWS V14.01,2013-08-27 01:30:00,
2013-08-26 18:36:00,75.2,48.6,29.97,NE,47,7.6,11.0,39,0.00,,---,0.00,VWS V14.01,2013-08-27 01:36:00,
2013-08-26 18:42:00,75.4,48.7,29.97,ENE,63,7.6,12.8,39,0.00,,---,0.00,VWS V14.01,2013-08-27 01:42:00,
2013-08-26 18:47:00,75.4,48.7,29.97,NNE,28,5.8,7.6,39,0.00,,---,0.00,VWS V14.01,2013-08-27 01:47:00,
2013-08-26 18:52:00,75.2,48.6,29.97,NE,49,11.0,11.0,39,0.00,,---,0.00,VWS V14.01,2013-08-27 01:52:00,
2013-08-26 18:58:00,75.0,48.4,29.97,ENE,69,5.8,8.7,39,0.00,,---,0.00,VWS V14.01,2013-08-27 01:58:00,
2013-08-26 19:04:00,74.7,48.1,29.97,ENE,70,6.7,7.6,39,0.00,,---,0.00,VWS V14.01,2013-08-27 02:04:00,
2013-08-26 19:09:00,74.3,47.8,29.97,ENE,61,6.3,8.1,39,0.00,,---,0.00,VWS V14.01,2013-08-27 02:09:00,
2013-08-26 19:15:00,73.9,48.5,29.97,ENE,78,5.4,5.8,40,0.00,,---,0.00,VWS V14.01,2013-08-27 02:15:00,
2013-08-26 19:20:00,73.8,48.3,29.97,NE,37,5.8,7.6,40,0.00,,---,0.00,VWS V14.01,2013-08-27 02:20:00,
2013-08-26 19:26:00,73.4,48.9,30.00,ENE,71,6.3,7.2,42,0.00,,---,0.00,VWS V14.01,2013-08-27 02:26:00,
2013-08-26 19:31:00,73.0,49.5,30.00,NE,51,5.8,5.8,44,0.00,,---,0.00,VWS V14.01,2013-08-27 02:31:00,
2013-08-26 19:37:00,73.0,49.5,30.00,ENE,64,4.9,5.8,44,0.00,,---,0.00,VWS V14.01,2013-08-27 02:37:00,
2013-08-26 19:43:00,72.5,49.1,30.00,NE,39,5.8,8.3,44,0.00,,---,0.00,VWS V14.01,2013-08-27 02:43:00,
2013-08-26 19:48:00,72.3,48.9,30.00,NNE,25,5.4,8.7,44,0.00,,---,0.00,VWS V14.01,2013-08-27 02:48:00,
2013-08-26 19:55:00,72.1,49.7,30.00,NE,51,8.3,8.3,45,0.00,,---,0.00,VWS V14.01,2013-08-27 02:55:00,
2013-08-26 20:01:00,72.0,49.5,30.00,NNE,33,5.4,6.3,45,0.00,,---,0.00,VWS V14.01,2013-08-27 03:01:00,
2013-08-26 20:06:00,71.8,50.2,30.00,NE,51,6.3,8.1,46,0.00,,---,0.00,VWS V14.01,2013-08-27 03:06:00,
2013-08-26 20:12:00,71.6,50.0,30.00,NE,35,5.4,8.3,46,0.00,,---,0.00,VWS V14.01,2013-08-27 03:12:00,
2013-08-26 20:17:00,71.4,50.7,30.00,NE,37,8.1,8.3,48,0.00,,---,0.00,VWS V14.01,2013-08-27 03:17:00,
2013-08-26 20:23:00,71.2,50.6,30.00,NNE,18,7.6,8.1,48,0.00,,---,0.00,VWS V14.01,2013-08-27 03:23:00,
2013-08-26 20:28:00,71.4,50.7,30.00,NNE,22,7.6,10.5,48,0.00,,---,0.00,VWS V14.01,2013-08-27 03:28:00,
2013-08-26 20:34:00,71.4,50.7,30.00,NE,46,8.3,11.0,48,0.00,,---,0.00,VWS V14.01,2013-08-27 03:34:00,
2013-08-26 20:39:00,71.2,50.6,30.00,NE,37,6.3,10.5,48,0.00,,---,0.00,VWS V14.01,2013-08-27 03:39:00,
2013-08-26 20:45:00,71.2,50.6,30.00,NNE,29,8.7,8.7,48,0.00,,---,0.00,VWS V14.01,2013-08-27 03:45:00,
2013-08-26 20:50:00,71.1,50.4,30.00,NE,55,5.4,8.1,48,0.00,,---,0.00,VWS V14.01,2013-08-27 03:50:00,
2013-08-26 20:56:00,71.1,51.2,30.00,NE,48,6.3,10.5,50,0.00,,---,0.00,VWS V14.01,2013-08-27 03:56:00,
2013-08-26 21:01:00,70.9,51.1,30.00,NE,56,6.7,9.2,50,0.00,,---,0.00,VWS V14.01,2013-08-27 04:01:00,
2013-08-26 21:02:00,70.9,51.1,30.00,NE,48,6.3,7.6,50,0.00,,---,0.00,VWS V14.01,2013-08-27 04:02:00,
2013-08-26 21:04:00,70.9,51.1,30.00,NE,42,6.3,8.7,50,0.00,,---,0.00,VWS V14.01,2013-08-27 04:04:00,
2013-08-26 21:05:00,70.7,50.9,30.00,NNE,12,6.3,7.6,50,0.00,,---,0.00,VWS V14.01,2013-08-27 04:05:00,
2013-08-26 21:06:00,70.7,50.9,30.00,NNE,15,5.4,7.6,50,0.00,,---,0.00,VWS V14.01,2013-08-27 04:06:00,
2013-08-26 21:12:00,70.7,50.9,30.00,NNE,24,5.4,9.2,50,0.00,,---,0.00,VWS V14.01,2013-08-27 04:12:00,
2013-08-26 21:18:00,70.7,50.9,30.00,NNE,22,5.8,6.3,50,0.00,,---,0.00,VWS V14.01,2013-08-27 04:18:00,
2013-08-26 21:23:00,70.5,50.7,30.00,NE,52,6.3,7.6,50,0.00,,---,0.00,VWS V14.01,2013-08-27 04:23:00,
2013-08-26 21:29:00,70.5,50.7,30.00,NE,49,8.1,8.7,50,0.00,,---,0.00,VWS V14.01,2013-08-27 04:29:00,
2013-08-26 21:34:00,70.5,50.7,30.00,NNE,18,5.8,8.3,50,0.00,,---,0.00,VWS V14.01,2013-08-27 04:34:00,
2013-08-26 21:40:00,70.5,50.7,30.00,NNE,28,8.7,10.5,50,0.00,,---,0.00,VWS V14.01,2013-08-27 04:40:00,
2013-08-26 21:46:00,70.5,50.7,30.00,NE,37,5.8,8.1,50,0.00,,---,0.00,VWS V14.01,2013-08-27 04:46:00,
2013-08-26 21:51:00,70.5,50.7,30.00,NNE,31,5.4,6.3,50,0.00,,---,0.00,VWS V14.01,2013-08-27 04:51:00,
2013-08-26 21:56:00,70.3,50.6,30.00,NE,47,5.8,6.3,50,0.00,,---,0.00,VWS V14.01,2013-08-27 04:56:00,
2013-08-26 22:01:00,70.3,50.6,30.00,North,6,6.3,7.6,50,0.00,,---,0.00,VWS V14.01,2013-08-27 05:01:00,
2013-08-26 22:07:00,70.3,50.6,30.00,NNE,19,5.4,8.7,50,0.00,,---,0.00,VWS V14.01,2013-08-27 05:07:00,
2013-08-26 22:12:00,70.2,50.4,30.00,NNE,25,7.6,7.6,50,0.00,,---,0.00,VWS V14.01,2013-08-27 05:12:00,
2013-08-26 22:18:00,70.2,50.4,30.00,NNE,20,8.7,9.6,50,0.00,,---,0.00,VWS V14.01,2013-08-27 05:18:00,
2013-08-26 22:23:00,70.2,50.4,30.00,NNE,15,5.8,7.6,50,0.00,,---,0.00,VWS V14.01,2013-08-27 05:23:00,
2013-08-26 22:29:00,70.0,50.2,30.00,NNE,20,6.3,7.6,50,0.00,,---,0.00,VWS V14.01,2013-08-27 05:29:00,
2013-08-26 22:35:00,70.0,50.2,30.00,NE,51,5.4,8.1,50,0.00,,---,0.00,VWS V14.01,2013-08-27 05:35:00,
2013-08-26 22:40:00,69.6,49.9,30.00,ENE,76,6.3,6.3,50,0.00,,---,0.00,VWS V14.01,2013-08-27 05:40:00,
2013-08-26 22:46:00,69.6,50.7,30.00,ENE,59,5.8,6.3,51,0.00,,---,0.00,VWS V14.01,2013-08-27 05:46:00,
2013-08-26 22:51:00,69.4,50.5,30.00,NE,56,5.8,5.8,51,0.00,,---,0.00,VWS V14.01,2013-08-27 05:51:00,
2013-08-26 22:57:00,69.1,50.2,30.00,ENE,61,5.4,5.8,51,0.00,,---,0.00,VWS V14.01,2013-08-27 05:57:00,
2013-08-26 23:03:00,68.9,50.0,30.00,NE,45,4.0,5.8,51,0.00,,---,0.00,VWS V14.01,2013-08-27 06:03:00,
2013-08-26 23:09:00,68.7,49.9,30.00,NE,50,3.6,4.5,51,0.00,,---,0.00,VWS V14.01,2013-08-27 06:09:00,
2013-08-26 23:14:00,68.4,49.5,30.00,NE,55,2.7,2.7,51,0.00,,---,0.00,VWS V14.01,2013-08-27 06:14:00,
2013-08-26 23:20:00,68.4,49.5,30.00,NE,55,0.0,0.0,51,0.00,,---,0.00,VWS V14.01,2013-08-27 06:20:00,
2013-08-26 23:25:00,68.2,49.4,30.00,ENE,60,5.8,5.8,51,0.00,,---,0.00,VWS V14.01,2013-08-27 06:25:00,
2013-08-26 23:31:00,67.6,49.7,30.00,NE,40,5.8,6.3,52,0.00,,---,0.00,VWS V14.01,2013-08-27 06:31:00,
2013-08-26 23:36:00,67.6,49.7,30.00,NNE,32,4.0,4.9,52,0.00,,---,0.00,VWS V14.01,2013-08-27 06:36:00,
2013-08-26 23:42:00,67.5,50.2,30.00,NE,43,7.6,8.7,54,0.00,,---,0.00,VWS V14.01,2013-08-27 06:42:00,
2013-08-26 23:48:00,67.5,50.2,30.00,NE,45,8.1,8.1,54,0.00,,---,0.00,VWS V14.01,2013-08-27 06:48:00,
2013-08-26 23:53:00,67.5,50.2,30.00,NE,48,7.2,7.2,54,0.00,,---,0.00,VWS V14.01,2013-08-27 06:53:00,
2013-08-26 23:59:00,67.5,50.2,30.00,NE,35,5.8,7.2,54,0.00,,---,0.00,VWS V14.01,2013-08-27 06:59:00,